Date String (YYYY-MM-DD hh:mm:ss) UTC,Instrument flags,Ambient pressure (hPa),Sample flow (lpm),Bypass flow (lpm),Sample temperature (°C),Ambient temperature (°C),ASC tube jacket temperature (°C),LED temperature (°C),Box temperature (°C),Sample RH (%),Span deviation,Mass concentration (μg/m³),Mass concentration (μg/m³),Mass concentration (μg/m³)
DateTimeUTC,F1_M11,P_M11,Q1_M11,Q2_M11,T1_M11,T2_M11,T3_M11,T4_M11,T5_M11,U1_M11,ZSPAN_M11,X2_M11,X0_M11,X1_M11
2022-07-09 22:00:00,,0831.1,4.99,0.00,29.1,27.1,00.0,37.7,31.0,15.6,0000.0,0003.59,0012.85,0002.88
2022-07-09 22:01:00,,0831.1,5.00,0.00,29.1,27.0,00.0,37.7,31.0,15.1,0000.0,0003.57,0012.12,0002.89
2022-07-09 22:02:00,,0831.2,5.01,0.00,29.1,27.2,00.0,37.7,30.9,15.0,0000.0,0003.56,0011.88,0002.89
2022-07-09 22:03:00,,0831.2,5.01,0.00,29.1,27.4,00.0,37.7,30.9,15.3,0000.0,0003.59,0011.10,0002.92
2022-07-09 22:04:00,,0831.2,5.00,0.00,29.1,27.6,00.0,37.7,31.1,14.6,0000.0,0003.59,0010.85,0002.94
2022-07-09 22:05:00,,0831.2,5.00,0.00,29.2,27.8,00.0,37.7,31.2,14.8,0000.0,0003.62,0011.86,0002.96
2022-07-09 22:06:00,,0831.2,5.00,0.00,29.2,27.8,00.0,37.7,31.2,14.6,0000.0,0003.63,0012.20,0002.96
2022-07-09 22:07:00,,0831.2,5.00,0.00,29.2,27.1,00.0,37.7,31.0,14.6,0000.0,0003.63,0011.44,0002.96
2022-07-09 22:08:00,,0831.2,5.00,0.00,29.1,27.0,00.0,37.7,31.0,15.2,0000.0,0003.60,0011.26,0002.97
2022-07-09 22:09:00,,0831.1,5.00,0.00,29.1,27.1,00.0,37.7,30.9,15.3,0000.0,0003.59,0011.26,0002.97
2022-07-09 22:10:00,,0831.1,5.00,0.00,29.1,27.3,00.0,37.7,30.9,15.3,0000.0,0003.61,0011.65,0002.98
2022-07-09 22:11:00,,0831.1,4.99,0.00,29.1,27.5,00.0,37.7,31.0,15.2,0000.0,0003.70,0013.22,0002.98
2022-07-09 22:12:00,,0831.1,5.00,0.00,29.2,27.7,00.0,37.8,31.1,15.2,0000.0,0003.72,0015.01,0002.97
2022-07-09 22:13:00,,0831.1,5.00,0.00,29.2,28.0,00.0,37.8,31.2,15.5,0000.0,0003.73,0015.88,0002.97
2022-07-09 22:14:00,,0831.0,5.00,0.00,29.2,27.9,00.0,37.8,31.2,15.2,0000.0,0003.74,0016.87,0002.97
2022-07-09 22:15:00,,0831.0,5.01,0.00,29.2,27.3,00.0,37.7,31.1,15.0,0000.0,0003.75,0017.19,0002.95
2022-07-09 22:16:00,,0831.0,5.00,0.00,29.2,27.2,00.0,37.7,31.0,15.0,0000.0,0003.74,0016.10,0002.94
2022-07-09 22:17:00,,0831.0,4.99,0.00,29.2,27.3,00.0,37.8,31.0,14.3,0000.0,0003.76,0015.28,0002.93
2022-07-09 22:18:00,,0831.0,5.00,0.00,29.1,27.4,00.0,37.8,31.0,14.1,0000.0,0003.76,0014.99,0002.93
2022-07-09 22:19:00,,0831.0,5.00,0.00,29.2,27.6,00.0,37.8,31.1,14.2,0000.0,0003.77,0015.27,0002.93
2022-07-09 22:20:00,,0831.0,5.00,0.00,29.2,27.8,00.0,37.8,31.1,14.2,0000.0,0003.74,0015.47,0002.93
2022-07-09 22:21:00,,0831.0,5.01,0.00,29.2,27.7,00.0,37.8,31.2,14.0,0000.0,0003.72,0014.94,0002.92
2022-07-09 22:22:00,,0831.0,5.00,0.00,29.2,27.2,00.0,37.7,31.1,14.1,0000.0,0003.61,0013.00,0002.93
2022-07-09 22:23:00,,0830.9,5.00,0.00,29.2,27.0,00.0,37.7,31.0,14.7,0000.0,0003.58,0011.28,0002.92
2022-07-09 22:24:00,,0830.9,5.00,0.00,29.1,27.1,00.0,37.8,30.9,15.0,0000.0,0003.58,0010.44,0002.92
2022-07-09 22:25:00,,0830.9,5.00,0.00,29.1,27.3,00.0,37.8,30.9,14.6,0000.0,0003.56,0010.00,0002.92
2022-07-09 22:26:00,,0831.0,5.00,0.00,29.1,27.5,00.0,37.8,31.0,14.7,0000.0,0003.55,0010.53,0002.92
2022-07-09 22:27:00,,0831.0,5.00,0.00,29.2,27.8,00.0,37.8,31.1,14.9,0000.0,0003.55,0010.73,0002.92
2022-07-09 22:28:00,,0831.1,5.00,0.00,29.2,27.6,00.0,37.8,31.1,14.4,0000.0,0003.54,0011.19,0002.94
2022-07-09 22:29:00,,0831.0,5.02,0.00,29.2,27.1,00.0,37.7,31.0,14.9,0000.0,0003.55,0011.41,0002.95
2022-07-09 22:30:00,,0831.0,5.01,0.00,29.1,27.0,00.0,37.7,31.0,14.9,0000.0,0003.54,0011.52,0002.96
2022-07-09 22:31:00,,0831.0,5.00,0.00,29.1,27.1,00.0,37.7,30.9,14.8,0000.0,0003.54,0011.22,0002.96
2022-07-09 22:32:00,,0831.0,5.02,0.00,29.1,27.3,00.0,37.7,30.9,14.6,0000.0,0003.54,0011.41,0002.97
2022-07-09 22:33:00,,0831.0,4.99,0.00,29.1,27.5,00.0,37.7,31.0,14.9,0000.0,0003.60,0011.35,0002.99
2022-07-09 22:34:00,,0831.0,5.00,0.00,29.2,27.7,00.0,37.8,31.1,14.9,0000.0,0003.70,0011.39,0003.02
2022-07-09 22:35:00,,0831.0,4.99,0.00,29.2,28.0,00.0,37.8,31.2,14.9,0000.0,0003.74,0011.46,0003.05
2022-07-09 22:36:00,,0831.0,5.00,0.00,29.2,27.8,00.0,37.8,31.2,14.9,0000.0,0003.75,0011.05,0003.04
2022-07-09 22:37:00,,0831.0,5.00,0.00,29.2,27.2,00.0,37.7,31.1,14.6,0000.0,0003.74,0009.78,0003.06
2022-07-09 22:38:00,,0830.9,5.02,0.00,29.1,27.0,00.0,37.7,31.0,15.0,0000.0,0003.72,0010.13,0003.08
2022-07-09 22:39:00,,0830.9,5.01,0.00,29.1,27.1,00.0,37.8,30.9,14.8,0000.0,0003.72,0010.25,0003.06
2022-07-09 22:40:00,,0830.9,5.01,0.00,29.1,27.3,00.0,37.8,31.0,14.5,0000.0,0003.73,0010.19,0003.06
2022-07-09 22:41:00,,0830.9,4.99,0.00,29.1,27.5,00.0,37.8,31.0,14.6,0000.0,0003.73,0009.56,0003.06
2022-07-09 22:42:00,,0830.9,5.00,0.00,29.2,27.8,00.0,37.8,31.1,14.6,0000.0,0003.75,0009.33,0003.06
2022-07-09 22:43:00,,0830.9,5.00,0.00,29.2,27.9,00.0,37.8,31.2,14.3,0000.0,0003.74,0009.01,0003.08
2022-07-09 22:44:00,,0830.9,5.00,0.00,29.2,27.3,00.0,37.8,31.1,14.2,0000.0,0003.72,0009.07,0003.09
2022-07-09 22:45:00,,0830.9,5.01,0.00,29.2,27.0,00.0,37.7,31.0,14.3,0000.0,0003.64,0009.69,0003.10
2022-07-09 22:46:00,,0830.9,5.00,0.00,29.1,27.1,00.0,37.8,31.0,14.3,0000.0,0003.61,0009.66,0003.11
2022-07-09 22:47:00,,0830.9,4.99,0.00,29.1,27.2,00.0,37.8,30.9,14.5,0000.0,0003.62,0010.76,0003.12
2022-07-09 22:48:00,,0830.9,5.01,0.00,29.1,27.4,00.0,37.8,31.0,14.7,0000.0,0003.64,0011.58,0003.13
2022-07-09 22:49:00,,0830.9,4.99,0.00,29.2,27.7,00.0,37.8,31.1,14.4,0000.0,0003.66,0011.28,0003.13
2022-07-09 22:50:00,,0830.9,5.00,0.00,29.2,27.9,00.0,37.8,31.2,14.3,0000.0,0003.66,0010.64,0003.14
2022-07-09 22:51:00,,0830.9,5.00,0.00,29.3,28.0,00.0,37.8,31.2,14.5,0000.0,0003.62,0011.85,0003.14
2022-07-09 22:52:00,,0830.9,5.00,0.00,29.2,27.4,00.0,37.8,31.1,14.7,0000.0,0003.64,0012.60,0003.14
2022-07-09 22:53:00,,0830.9,5.01,0.00,29.2,27.1,00.0,37.8,31.0,14.5,0000.0,0003.65,0012.78,0003.15
2022-07-09 22:54:00,,0830.9,5.00,0.00,29.2,27.1,00.0,37.8,31.0,14.8,0000.0,0003.69,0012.99,0003.16
2022-07-09 22:55:00,,0830.9,4.99,0.00,29.2,27.3,00.0,37.8,31.0,14.9,0000.0,0003.69,0012.95,0003.15
2022-07-09 22:56:00,,0830.9,4.99,0.00,29.2,27.5,00.0,37.8,31.0,15.5,0000.0,0003.68,0012.23,0003.14
2022-07-09 22:57:00,,0830.9,5.00,0.00,29.2,27.7,00.0,37.8,31.1,15.1,0000.0,0003.69,0012.31,0003.14
2022-07-09 22:58:00,,0830.8,5.00,0.00,29.2,27.9,00.0,37.8,31.2,14.6,0000.0,0003.68,0011.55,0003.15
2022-07-09 22:59:00,,0830.8,5.01,0.00,29.3,27.7,00.0,37.8,31.2,14.9,0000.0,0003.66,0011.12,0003.15
